Location: Aalsum
(53.3404°N, 6.0062°E)
Time: 10:31:43
(UTC+00:00)

Cosmos 2263 Rocket - Pass Details

Date: 28 January 2023
Orbit: 825 x 847 km, 71.0° (Epoch: 19 March)

Event Time Altitude Azimuth Distance (km) Brightness Sun altitude
Rises 17:06:04 0° 328° (NNW) 3,382 5.5 -8.3°
Reaches altitude 10° 17:08:33 10° 331° (NNW) 2,442 4.7 -8.6°
Maximum altitude 17:14:07 65° 54° (NE) 910 2.2 -9.4°
Drops below altitude 10° 17:19:38 10° 136° (SE) 2,424 4.3 -10.2°
Sets 17:22:05 0° 139° (SE) 3,354 5.1 -10.6°
